Location: ?????????
(38.0736°N, 23.2119°E)
Time: 14:32:28
(UTC+00:00)

COSMOS 2455 - Visible Passes

Search period start: 12 July 2024 00:00
Search period end: 22 July 2024 00:00
Orbit: 898 x 911 km, 67.1° (Epoch: 12 July)

Date Brightness Start Highest point End Pass type
(mag) Time Alt. Az. Time Alt. Az. Time Alt. Az.
12 Jul 2.8 01:09:50 10° NNW 01:15:49 68° WSW 01:21:47 10° SSE visible
12 Jul 4.7 23:28:22 10° N 23:33:28 27° NE 23:38:30 10° ESE visible
13 Jul 3.0 01:13:50 10° NW 01:19:37 49° WSW 01:23:14 22° S visible
13 Jul 4.2 23:31:59 10° NNW 23:37:30 36° NE 23:42:03 14° ESE visible
14 Jul 3.4 01:17:57 10° NW 01:23:21 35° WSW 01:25:03 30° SW visible
14 Jul 3.6 23:35:39 10° NNW 23:41:29 48° ENE 23:44:19 28° ESE visible
15 Jul 3.8 01:22:14 10° NW 01:27:03 25° WSW 01:27:21 25° WSW visible
15 Jul 5.4 21:55:56 10° NNE 21:58:16 12° NE 22:00:36 10° ENE visible
15 Jul 3.1 23:39:23 10° NNW 23:45:25 64° ENE 23:46:54 49° ESE visible
16 Jul 4.3 01:26:48 10° WNW 01:29:57 18° W 01:29:57 18° W visible
16 Jul 5.2 21:58:54 10° N 22:02:29 16° NE 22:06:03 10° E visible
16 Jul 2.7 23:43:13 10° NNW 23:49:17 87° ENE 23:49:41 79° SE visible
17 Jul 4.8 01:31:59 10° WNW 01:32:45 11° W 01:32:45 11° W visible
17 Jul 4.9 22:02:13 10° N 22:06:39 21° NE 22:09:33 15° E visible
17 Jul 2.9 23:47:07 10° NNW 23:52:37 66° W 23:52:37 66° W visible
18 Jul 4.4 22:05:42 10° N 22:10:44 27° NE 22:12:36 23° ENE visible
18 Jul 3.4 23:51:06 10° NW 23:55:41 44° WNW 23:55:41 44° WNW visible
19 Jul 4.0 22:09:17 10° NNW 22:14:46 35° NE 22:15:45 33° ENE visible
19 Jul 4.0 23:55:12 10° NW 23:58:50 30° WNW 23:58:50 30° WNW visible
20 Jul 3.5 22:12:57 10° NNW 22:18:45 46° ENE 22:18:59 46° ENE visible
20 Jul 4.5 23:59:28 10° NW 00:02:04 21° WNW 00:02:04 21° WNW visible
21 Jul 5.2 20:33:21 10° NNE 20:35:31 12° NE 20:37:42 10° ENE visible
21 Jul 3.2 22:16:42 10° NNW 22:22:17 61° NE 22:22:17 61° NE visible
